Location: McKinney
(33.1972°N, 96.6398°W)
Time: 04:36:15
(UTC-05:00)

ISS - Pass Details

Date: 30 April 2019
Orbit: 407 x 410 km, 51.6° (Epoch: 23 May)

Event Time Altitude Azimuth Distance (km) Brightness Sun altitude
Exits shadow 06:01:40 - 278° (W) 1,619 -1.3 -8.3°
Reaches altitude 10° 06:02:10 10° 284° (WNW) 1,471 -1.5 -8.2°
Maximum altitude 06:04:26 17° 327° (NNW) 1,124 -1.7 -7.8°
Drops below altitude 10° 06:06:41 10° 10° (N) 1,477 -0.5 -7.3°
Sets 06:09:18 0° 32° (NNE) 2,341 1.0 -6.8°
